Dewpoint
59 59 62 58 41 46 36 37 47 42 38 41 41 38 41 55 51 41 66 67 66 66 70 73 73 73 71 72 71 68 67 68 70 70 70 67 66 65 64 66 65 68 69 69 69 70 70 69 69
57 61 60 55 37 25 20 43 42 38 38 38 38 48 51 54 60 63 65 67 67 67 71 73 72 72 72 72 71 69 67 68 70 70 69 67 65 65 65 64 66 68 68 69 69 69 69 69 70
55 58 53 48 42 25 25 42 36 33 34 40 42 54 58 58 60 63 64 68 66 69 72 73 73 72 72 71 71 70 67 67 68 70 68 67 64 65 65 64 66 68 68 69 69 69 69 69 69
53 52 49 47 39 45 44 38 31 29 37 43 47 45 60 62 61 62 66 68 67 69 71 74 72 72 72 71 71 70 68 67 67 69 68 68 65 64 64 64 65 68 67 68 68 68 68 69 69
48 44 39 38 38 44 39 33 28 28 41 43 45 44 58 61 62 64 68 69 68 69 71 73 73 72 72 71 71 70 68 67 67 70 69 67 65 65 65 64 65 66 64 68 68 68 67 68 67
41 41 26 19 28 36 35 27 28 25 38 36 44 46 57 62 61 63 68 70 70 69 71 72 71 71 71 71 71 70 69 68 67 69 69 68 65 65 64 65 65 64 64 66 66 65 66 67 67
38 35 26 30 33 33 28 27 26 25 27 27 49 48 49 56 60 63 66 70 71 70 71 70 69 69 69 71 71 70 69 69 68 68 69 68 66 65 64 64 64 65 65 66 66 65 66 67 66
43 39 37 35 25 24 27 28 26 27 26 29 49 29 45 58 62 64 65 67 69 68 65 64 64 64 65 69 70 70 69 69 69 69 69 67 67 66 64 62 65 66 66 67 65 64 65 65 65
40 35 31 32 25 24 25 28 29 29 27 30 37 43 50 60 63 62 62 64 65 66 62 61 61 62 62 62 64 69 69 69 70 70 69 67 67 66 65 63 63 65 65 65 64 64 64 63 63
35 27 26 32 26 25 26 29 30 30 30 29 31 33 50 58 57 58 60 61 63 63 63 61 61 62 62 62 60 61 69 68 67 69 68 67 66 65 65 64 62 65 64 65 64 63 63 60 59
34 25 28 29 32 28 29 30 31 30 30 32 32 33 39 51 53 54 54 57 59 63 64 63 61 60 62 62 61 60 63 67 67 68 68 66 65 66 65 64 60 63 63 63 62 58 57 57 57
26 28 27 27 30 32 30 31 31 32 33 36 35 34 37 39 40 40 42 49 56 61 62 61 60 60 61 61 62 61 64 67 67 67 67 65 64 64 63 61 57 59 59 59 56 55 56 56 56
29 30 31 31 32 33 32 31 31 33 35 38 39 40 40 41 41 43 45 46 55 56 58 56 57 59 58 61 63 64 66 66 67 67 66 65 64 62 61 58 56 57 56 56 54 54 55 56 56
30 32 32 33 32 33 31 31 31 34 37 38 38 39 40 41 43 44 44 45 46 53 55 56 59 61 63 63 63 65 66 67 66 66 65 64 63 61 60 56 55 56 55 54 53 54 55 55 56
34 31 26 28 29 32 32 30 32 37 38 37 39 40 41 42 44 45 45 45 46 48 55 58 59 63 60 64 62 62 65 66 66 66 65 63 62 60 59 55 54 54 51 50 53 53 54 54 55
26 24 20 22 27 32 31 28 34 39 37 37 40 42 43 44 44 45 46 46 46 48 56 59 59 62 61 63 61 61 61 64 65 64 64 63 61 59 57 54 53 48 47 50 52 53 53 53 54
22 18 20 21 25 31 30 28 35 39 38 38 40 43 44 45 45 46 46 47 47 48 52 58 61 61 62 61 61 62 62 64 65 64 63 62 61 59 55 52 49 45 43 50 51 51 52 52 52
14 19 21 20 23 30 30 30 33 38 38 38 41 44 44 44 44 46 46 48 48 49 55 59 61 60 61 62 62 62 63 64 65 64 62 62 61 58 53 50 45 43 42 48 49 49 49 52 51
20 21 20 22 26 32 32 32 32 37 38 38 41 43 44 44 45 46 47 49 49 51 61 62 61 60 62 62 61 60 60 63 64 63 61 60 60 58 51 47 43 41 42 46 47 46 48 47 46
21 20 20 23 28 31 32 31 33 37 37 39 42 43 43 44 47 48 49 50 50 51 59 61 62 61 62 62 61 61 60 63 60 59 58 58 59 59 50 44 42 40 40 43 44 45 44 41 44
19 20 19 21 26 30 29 28 32 35 36 38 43 44 43 46 47 48 48 50 51 51 58 60 62 62 63 63 62 61 60 59 57 56 55 54 54 52 52 45 41 40 39 41 42 43 44 43 41
15 21 22 24 24 24 29 26 27 33 34 38 42 41 46 46 48 49 51 51 51 52 59 60 61 60 61 63 61 61 59 57 55 54 54 54 53 52 47 42 39 39 39 38 40 41 41 43 42
14 24 27 26 25 29 28 26 25 32 31 39 42 43 45 47 49 51 53 54 56 57 58 58 58 59 60 61 61 59 57 56 56 54 53 53 53 52 52 48 39 38 40 38 38 40 39 40 39
27 29 28 31 31 27 28 26 25 28 34 40 42 44 46 48 49 52 54 55 55 57 56 56 56 57 59 59 58 57 56 54 53 53 53 52 52 52 51 48 45 43 42 40 40 40 41 41 41
25 25 17 14 23 17 29 28 26 31 41 42 42 45 47 48 49 51 53 55 56 56 56 56 55 55 57 56 55 55 55 54 53 52 51 50 50 49 49 49 47 46 46 44 43 43 43 43 43
24 22 13 -3 1 14 28 25 22 37 42 42 44 46 47 48 49 50 52 54 55 55 56 55 55 55 55 55 54 53 53 52 52 51 51 51 50 50 50 49 49 49 48 48 47 46 45 44 43
26 23 26 25 27 25 25 28 24 40 40 40 44 44 45 47 48 49 50 52 53 54 54 55 55 54 54 55 55 55 54 53 52 52 52 51 51 51 50 50 49 49 48 47 47 46 45 45 44
24 30 26 26 12 4 13 21 19 23 26 38 42 43 45 47 47 48 49 50 51 52 53 53 54 53 54 54 54 54 54 54 53 53 52 51 51 51 51 50 49 48 48 48 47 46 46 45 45
30 28 24 26 24 14 9 9 23 24 32 38 42 44 45 46 46 47 48 48 50 51 51 51 51 51 52 52 52 52 52 52 53 52 51 51 51 51 50 50 49 48 48 47 46 46 45 44 43
25 24 23 11 14 23 18 13 31 29 36 41 42 44 46 46 45 46 46 47 47 47 47 47 49 49 50 51 51 51 51 51 51 50 51 50 50 50 50 49 49 48 48 47 46 45 43 43 40
Wind_Speed
6 6 2 4 1 3 3 3 2 9 11 4 14 9 6 2 1 4 8 7 11 15 13 16 22 24 22 23 22 21 19 18 17 21 20 19 18 16 16 15 14 15 15 17 19 19 20 20 20
2 2 5 3 1 2 4 3 7 14 15 18 7 1 3 1 2 1 4 3 14 19 11 12 21 21 21 20 21 22 19 18 17 20 20 18 18 16 16 16 14 14 16 17 19 20 19 20 21
1 3 3 1 3 6 3 3 12 15 14 7 6 5 3 3 5 3 6 11 16 18 11 11 20 21 20 19 20 21 19 18 17 17 18 18 18 17 16 16 15 15 16 18 19 20 20 20 21
2 4 5 1 7 4 2 10 11 16 7 10 6 2 2 0 4 9 4 12 15 14 11 10 19 20 18 20 20 21 19 18 17 18 18 17 16 17 16 15 16 16 18 19 21 21 21 21 21
6 4 2 1 4 4 3 5 8 13 7 10 8 7 4 3 7 7 7 13 17 14 12 9 18 18 18 19 20 20 20 18 16 17 19 18 16 16 15 15 16 16 16 18 20 21 22 21 22
4 3 2 7 5 3 4 6 5 8 5 9 7 8 4 3 4 6 2 5 9 16 13 9 15 15 17 19 19 20 20 19 18 15 19 20 17 16 15 15 16 16 15 16 20 19 20 21 22
4 4 4 3 3 2 1 7 3 7 7 6 3 4 5 4 1 4 2 3 5 4 7 7 8 11 17 18 19 19 19 20 18 16 18 19 19 17 15 14 15 17 15 17 21 20 20 21 23
5 4 3 3 2 2 2 6 3 2 4 8 1 3 4 3 1 3 5 5 6 7 12 12 14 14 11 5 16 19 18 18 19 16 17 18 20 18 17 15 15 17 15 21 22 19 19 20 22
3 2 4 4 4 3 3 3 1 1 3 6 3 2 4 3 1 2 2 3 4 9 13 12 13 7 9 9 10 13 18 18 17 15 17 18 14 15 14 13 16 17 18 19 20 18 17 19 20
3 3 6 5 4 4 5 3 5 2 8 4 7 7 4 2 3 5 8 8 8 9 8 9 10 10 4 2 6 8 14 17 14 12 15 16 14 16 14 13 15 17 19 19 20 17 17 15 14
3 4 5 6 11 7 3 4 1 4 6 4 10 12 8 7 6 7 9 9 7 10 10 11 11 11 16 12 8 5 15 12 14 15 16 16 14 15 13 12 11 10 14 12 15 12 11 15 15
3 6 6 4 5 3 4 2 3 5 3 7 10 4 9 13 11 12 12 9 7 10 13 11 12 15 9 6 10 9 20 12 13 15 17 15 14 15 14 13 12 13 12 16 15 14 14 15 16
5 5 5 10 9 9 4 5 2 5 2 6 9 13 13 11 12 11 10 10 4 10 12 15 11 10 9 2 2 13 16 18 15 16 16 15 16 15 14 14 14 15 15 16 16 15 15 16 16
3 7 11 7 6 4 5 3 7 3 4 6 9 10 7 8 10 11 14 14 11 5 16 15 11 9 3 3 10 7 19 20 16 17 18 17 16 16 15 15 16 16 17 16 17 16 16 14 14
3 6 8 2 4 1 6 3 6 1 2 7 10 11 8 8 8 10 12 15 11 11 14 17 16 12 12 12 10 13 7 7 13 16 19 18 17 17 16 16 17 17 14 16 15 14 15 15 12
2 3 4 3 4 1 3 10 6 2 2 4 10 13 14 11 10 10 14 15 14 11 11 15 13 14 12 5 11 14 2 4 9 12 15 17 15 15 16 16 16 15 15 17 16 16 15 15 15
5 4 5 8 4 3 6 7 5 3 1 5 10 15 18 19 14 10 15 14 17 14 7 20 19 18 10 7 7 15 17 11 9 11 14 15 17 16 16 15 17 17 16 15 18 13 17 17 14
4 4 5 8 4 3 7 17 7 5 1 4 10 14 14 17 19 17 17 15 15 19 13 21 21 19 10 9 11 8 11 10 10 11 12 14 15 16 15 15 16 17 16 16 14 18 10 12 15
3 5 9 9 7 5 5 13 10 6 3 4 10 16 19 19 18 18 15 16 13 17 9 20 22 19 16 12 11 5 8 6 8 8 10 11 12 13 14 13 16 14 17 18 17 13 18 12 11
5 6 9 9 4 3 9 15 8 5 2 5 14 18 19 16 20 19 16 14 12 12 12 19 21 22 20 11 11 3 12 7 11 11 10 9 10 15 14 16 17 16 16 17 20 19 12 5 10
6 8 7 6 7 1 8 8 3 1 2 6 14 11 11 16 21 21 17 15 11 9 7 12 12 18 19 14 10 10 14 12 9 10 10 7 10 9 12 13 13 19 15 19 18 19 16 16 8
7 4 6 5 6 3 4 7 5 2 9 7 14 15 16 19 20 17 14 10 9 9 3 7 8 7 9 15 16 17 10 12 8 13 12 11 9 6 11 7 11 11 16 18 19 16 15 17 18
4 1 2 3 4 3 1 2 5 4 8 14 16 15 18 19 19 15 12 11 10 8 10 14 12 8 8 13 12 15 14 13 14 18 17 15 13 12 7 2 8 11 11 15 20 18 16 12 15
4 2 4 4 2 3 1 1 6 4 5 6 10 15 17 18 20 16 15 15 16 15 15 15 15 11 10 10 12 15 17 15 14 15 15 13 10 9 10 7 7 8 11 16 16 14 14 14 12
2 2 4 1 1 5 2 2 11 4 1 1 8 13 14 14 18 19 17 16 16 15 13 14 17 16 14 13 13 15 17 15 14 14 14 14 13 9 8 5 5 8 9 12 14 14 15 15 17
4 5 4 4 3 4 3 5 3 1 4 2 5 8 8 10 12 14 15 14 13 12 12 14 15 16 15 14 13 14 16 15 13 12 13 12 11 11 10 11 12 13 14 15 15 15 14 14 14
4 4 4 6 1 2 3 6 7 3 4 2 6 6 6 7 8 9 9 11 10 11 9 11 13 14 14 15 13 14 12 14 16 15 12 12 12 12 12 10 13 13 14 16 18 15 14 13 10
4 12 3 1 2 4 4 6 7 4 4 2 2 3 4 4 5 7 7 8 9 9 9 10 12 11 13 15 14 15 14 14 12 12 12 13 12 12 14 12 11 12 11 11 11 12 9 10 6
6 4 4 5 4 3 4 5 7 5 4 3 5 3 2 3 4 4 5 6 7 9 10 10 11 12 12 14 17 17 17 16 15 13 12 13 12 10 12 13 12 10 9 7 8 6 5 5 5
5 8 9 5 6 3 2 8 2 6 6 6 5 6 3 3 2 5 7 7 10 11 13 12 12 12 10 9 16 17 16 17 17 16 15 12 13 11 8 8 9 7 4 3 2 2 3 5 6
Wind_Direction
331 338 54 35 317 50 265 261 304 356 334 267 297 265 283 64 120 258 338 200 147 155 172 185 172 161 169 159 151 145 144 141 136 134 131 122 118 118 118 117 112 102 96 93 91 88 88 88 89
351 70 50 85 136 228 254 303 11 319 304 306 314 273 27 8 49 119 156 158 150 153 172 176 175 169 167 163 152 147 147 145 140 138 134 129 125 122 121 121 115 105 100 100 95 91 89 88 88
24 51 101 117 145 219 215 25 329 318 317 355 347 42 36 350 340 194 308 150 144 154 167 180 177 174 168 164 156 148 150 149 146 138 136 135 131 129 126 123 123 110 106 105 101 95 93 91 90
112 43 51 175 229 255 259 342 345 351 359 22 354 344 49 214 298 313 269 143 145 152 162 182 178 175 168 164 161 153 153 154 151 149 142 137 136 133 131 127 127 118 107 106 104 99 95 95 93
45 65 107 248 257 265 276 311 343 6 4 348 355 343 341 16 335 341 164 155 154 160 169 182 183 178 171 167 164 160 156 157 158 156 146 142 141 136 133 130 128 126 120 110 109 105 99 97 96
71 90 120 235 247 268 304 332 337 5 356 355 13 344 331 324 10 342 337 152 156 165 171 171 185 185 177 171 171 168 160 162 162 161 153 146 146 140 136 136 134 128 126 121 113 108 106 101 100
120 110 200 210 268 314 311 337 18 347 342 5 315 2 309 315 26 6 357 125 112 138 126 81 116 201 188 179 174 173 168 167 167 171 163 155 148 145 139 139 136 127 128 134 117 114 112 104 100
110 103 157 231 197 248 261 336 324 341 322 323 325 20 335 336 208 18 50 99 114 96 87 79 74 82 65 9 188 177 174 175 172 180 167 163 146 143 141 139 139 129 126 123 117 118 111 106 103
107 92 214 230 187 264 270 345 279 337 297 323 348 292 286 304 142 222 140 108 120 139 123 112 93 73 80 59 27 205 182 180 177 174 166 161 142 139 133 136 143 137 122 122 121 118 111 104 102
125 166 217 221 210 242 280 293 319 346 329 312 315 327 343 336 348 286 243 210 190 174 172 157 147 154 161 90 9 14 277 182 174 159 148 147 142 134 137 140 144 143 128 127 121 119 110 94 92
171 213 214 252 240 242 256 291 35 351 332 328 295 313 3 26 345 301 277 254 246 228 205 208 230 230 200 186 214 305 307 189 158 151 148 149 138 134 138 138 136 135 117 111 107 108 98 105 104
241 246 225 267 246 199 245 285 348 82 26 3 34 24 57 45 35 23 1 325 247 210 218 234 245 254 259 152 164 180 224 176 153 154 151 146 138 141 144 138 134 121 118 118 119 117 111 105 104
223 265 230 254 274 256 205 251 228 111 38 24 33 47 36 25 1 355 350 2 343 231 221 219 231 217 255 326 260 235 178 168 162 155 154 149 146 150 144 141 129 130 129 133 130 126 119 114 109
237 279 287 279 303 259 192 181 157 151 31 48 42 38 20 8 350 335 343 343 346 309 220 212 209 197 168 95 61 4 177 163 166 159 157 154 153 153 149 146 136 140 137 141 139 136 128 121 117
286 314 321 268 327 1 154 205 192 38 22 22 20 18 8 344 335 332 323 319 315 312 230 204 180 179 193 152 116 62 3 147 167 163 155 155 154 154 152 150 146 151 147 142 132 124 122 122 114
23 46 327 273 346 328 169 253 165 82 108 6 14 5 355 342 310 307 317 310 309 305 227 204 192 196 203 176 119 113 288 292 167 157 152 153 152 150 151 152 150 153 146 141 141 140 131 132 132
19 282 281 315 330 228 217 266 162 167 124 17 7 358 348 333 325 304 309 309 309 296 263 199 200 208 181 156 143 143 142 181 171 158 154 156 154 156 156 158 153 151 148 149 148 143 143 143 134
265 287 272 272 281 279 255 262 239 210 252 4 359 343 329 325 315 311 309 311 313 301 276 198 197 200 174 163 167 156 145 162 151 159 156 159 156 159 155 159 158 152 147 147 145 144 125 143 138
218 248 266 269 268 293 280 287 268 216 277 344 339 343 334 318 308 309 313 311 325 317 214 175 186 189 188 164 168 161 120 148 124 133 150 153 152 152 153 157 158 154 152 158 149 127 138 132 126
236 260 273 290 267 297 314 291 268 232 267 63 7 338 323 324 325 323 324 318 331 314 215 178 184 185 194 182 182 145 172 130 110 104 100 126 156 163 161 161 168 167 149 150 154 151 135 117 161
243 241 263 261 324 305 330 288 331 308 87 40 357 312 332 329 326 326 326 321 333 337 210 183 189 193 186 167 149 104 102 106 95 98 90 60 121 144 160 169 172 172 164 164 163 156 153 157 193
276 251 248 272 338 295 23 294 296 280 321 25 348 356 351 344 333 326 329 330 350 344 79 102 97 118 141 158 165 166 161 151 136 128 120 93 99 92 118 133 167 192 170 168 168 161 163 154 178
226 336 287 279 240 335 322 282 265 326 334 13 353 345 356 349 345 352 18 31 49 62 68 78 85 94 94 120 139 148 144 131 140 140 137 126 114 119 100 138 153 179 190 179 165 168 168 164 168
135 133 50 63 87 281 260 159 280 318 325 351 345 350 0 358 352 29 51 54 65 64 61 70 76 69 83 108 115 119 134 134 134 138 139 133 120 114 127 118 132 157 189 176 170 167 168 168 146
132 80 308 306 247 242 183 256 259 282 149 354 349 350 358 359 15 21 40 57 63 73 59 61 67 61 70 87 97 107 118 126 133 133 132 131 129 124 118 102 107 127 158 142 140 141 143 144 144
185 177 188 271 250 285 298 241 271 258 144 336 19 13 13 13 21 34 33 48 63 73 76 75 78 71 70 76 91 110 123 121 114 117 127 125 123 112 124 129 126 127 117 110 110 109 106 108 114
170 198 145 110 60 302 264 283 282 276 272 52 37 37 29 20 24 32 47 52 65 62 70 90 93 87 79 80 83 90 107 113 124 122 111 106 115 114 102 95 97 94 105 111 111 109 110 105 113
182 149 131 73 244 269 271 275 248 287 312 129 121 49 52 40 41 35 45 68 78 74 67 67 69 86 90 89 84 85 86 97 112 118 124 125 124 127 123 117 115 115 104 105 113 116 125 126 129
150 179 98 123 156 226 291 262 215 220 234 201 165 140 15 47 62 65 54 52 69 76 80 77 77 78 89 100 101 96 91 91 91 107 111 111 116 129 134 143 143 134 123 119 119 124 137 149 158
179 179 163 176 205 186 180 273 249 208 215 198 163 146 141 97 84 96 91 82 68 69 71 66 76 88 89 88 100 98 104 101 94 83 78 92 101 98 104 115 116 109 110 102 110 141 147 160 156